Simultaneous Nadir Overpasses (SNOs) Predictions

Prediction of SNOs between AQUA and METOP-B Satellite Orbit:

Table of predicted SNOs for the next 14.0 days since TLE Epoch: 10/31/2020
Index Date (AQUA) Time (AQUA) Lat,Lon (AQUA) SZA (AQUA ) Date (METOP-B) Time (METOP-B) Lat,Lon (METOP-B) SZA (METOP-B ) Distance(km) Time Diff (sec)
1 11/01/2020 13:02:25 73.77, -21.25 88.37 11/01/2020 13:01:20 73.76, -21.25 88.35 1.63 65
2 11/01/2020 13:51:52 -73.83, 146.26 91.57 11/01/2020 13:52:01 -73.81, 146.21 91.58 2.32 9
3 11/01/2020 14:41:24 74.08, -46.66 88.70 11/01/2020 14:42:35 74.08, -45.80 88.70 26.32 71
4 11/04/2020 08:36:40 73.76, 45.21 89.23 11/04/2020 08:35:43 73.78, 45.22 89.26 2.60 57
5 11/04/2020 09:26:07 -73.82,-147.28 90.70 11/04/2020 09:26:24 -73.84,-147.32 90.68 2.51 17
6 11/04/2020 10:15:45 74.38, 19.08 89.89 11/04/2020 10:16:52 74.40, 21.43 89.90 70.30 67
7 11/07/2020 04:10:55 73.76, 111.65 90.07 11/07/2020 04:10:07 73.76, 111.57 90.08 2.65 48
8 11/07/2020 05:00:23 -73.87, -80.96 89.81 11/07/2020 05:00:47 -73.86, -80.85 89.81 3.22 24
9 11/09/2020 23:45:09 73.76, 178.08 90.88 11/09/2020 23:44:29 73.78, 178.03 90.90 2.55 40
10 11/10/2020 00:34:36 -73.82, -14.42 89.05 11/10/2020 00:35:10 -73.84, -14.51 89.04 3.34 34
11 11/12/2020 19:19:24 73.77,-115.51 91.66 11/12/2020 19:18:52 73.80,-115.52 91.69 2.68 32
12 11/12/2020 20:08:51 -73.84, 51.99 88.27 11/12/2020 20:09:33 -73.85, 51.93 88.25 2.47 42
